Weather Roundup
Issued by NWS

Home | Current Version | Previous Version | Graphics & Text | Print | Product List | Glossary Off
Versions: 1 2 3 4 5 6 7 8 9 10 11 12 13 14 15 16 17 18 19 20 21 22 23 24 25 26 27 28 29 30 31 32 33 34 35 36 37 38 39 40 41 42 43 44 45 46 47 48 49 50

484
NZUS93 KARX 232310
HRRWXR

CURRENT HOURLY OBSERVATIONS ACROSS
MUCH OF THE UPPER MISSISSIPPI VALLEY
NATIONAL WEATHER SERVICE LA CROSSE WI
600 PM CDT MON APR 23 2018


...SOUTHEAST MINNESOTA...


CITY           SKY/WX    TMP DP  RH WIND       PRES   REMARKS
ROCHESTER      FAIR      65  37  35 E7        30.13F
ROCHESTER/MAYO FAIR      66  33  28 N6        30.13F
WINONA         FAIR      70  28  21 CALM      30.09F
AUSTIN         FAIR      64  37  36 N5        30.12F
ALBERT LEA     FAIR      64  36  34 NE6       30.13F
DODGE CENTER   FAIR      64  36  34 CALM      30.14S
PRESTON        FAIR      65  29  26 NE5       30.13F
OWATONNA       FAIR      66  37  34 CALM      30.13F
FARIBAULT      NOT AVBL
$$

...ELSEWHERE IN MINNESOTA...


CITY           SKY/WX    TMP DP  RH WIND       PRES   REMARKS
MINNEAPOLIS    FAIR      68  36  30 SE3       30.12F
INTNL FALLS    FAIR      62  32  32 NW14      30.11S
DULUTH         PTSUNNY   65  39  38 W12       30.10S
RED WING       FAIR      70  23  17 SE3       30.11S
REDWOOD FALLS  SUNNY     66  38  35 S9        30.13F
MANKATO        FAIR      67  40  37 CALM      30.14F
WORTHINGTON    SUNNY     63  42  46 NE8       30.15S
FAIRMONT       SUNNY     62  39  42 CALM      30.15F
$$

...SOUTHWEST WISCONSIN...


CITY           SKY/WX    TMP DP  RH WIND       PRES   REMARKS
LA CROSSE      FAIR      71  27  19 SW6       30.10F
PRAIRIE DU CHI FAIR      69  22  17 E8        30.09F
BOSCOBEL       FAIR      70  27  20 VRB6      30.11F
LONE ROCK      FAIR      67  28  23 E7        30.11S
PLATTEVILLE    FAIR      67  28  23 NE8       30.11S
FORT MC COY    FAIR      68  27  21 E6        30.13S
MAUSTON-NEW LI FAIR     N/A N/A N/A NE3       30.12S
VIROQUA        FAIR      65  33  30 N10       30.12F
WIS DELLS      FAIR      64  26  23 E10       30.12F
$$

...ELSEWHERE IN WISCONSIN...


CITY           SKY/WX    TMP DP  RH WIND       PRES   REMARKS
MILWAUKEE      PTSUNNY   56  21  25 NE15      30.13F
MADISON        PTSUNNY   65  24  21 E8        30.12S
GREEN BAY      FAIR      60  34  37 E7        30.16F
EAU CLAIRE     FAIR      68  28  22 W3        30.12F
BLACK RVR FLS  FAIR      71  16  12 E3        30.12S
MEDFORD        FAIR      60  32  34 CALM      30.15S
WAUSAU         FAIR      64  23  21 SW3       30.12F
WIS RAPIDS     FAIR      64  24  21 E6        30.15F
MARSHFIELD     FAIR      62  30  29 SE6       30.13F
RICE LAKE      FAIR      64  32  30 CALM      30.16S
$$

...NORTHEAST IOWA...


CITY           SKY/WX    TMP DP  RH WIND       PRES   REMARKS
WATERLOO       FAIR      69  30  23 NE10      30.08F
DUBUQUE        FAIR      66  27  23 NE8       30.09F
DECORAH        FAIR      66  27  22 E9        30.10F
MASON CITY     SUNNY     65  41  41 NE9       30.13F
CHARLES CITY   FAIR      66  34  30 NE9G16    30.12S
OELWEIN        FAIR      68  30  24 NE9       30.10S
$$

...ELSEWHERE IN IOWA...


CITY           SKY/WX    TMP DP  RH WIND       PRES   REMARKS
DES MOINES     MOSUNNY   73  28  18 NE10      30.06F
IOWA CITY      FAIR      68  27  21 NE9       30.07F
FORT DODGE     SUNNY     68  38  33 NE8       30.11F
MARSHALLTOWN   SUNNY     71  29  21 NE10      30.07F
CEDAR RAPIDS   FAIR      71  27  19 NE12      30.06F
$$

...NORTHERN ILLINOIS...


CITY           SKY/WX    TMP DP  RH WIND       PRES   REMARKS
CHICAGO-OHARE  CLOUDY    59  25  27 NE14      30.10R
CHICAGO-MIDWAY CLOUDY    58  27  30 N13       30.10S
MOLINE         FAIR      72  32  23 NE13      30.03S
ROCKFORD       PTSUNNY   67  28  23 E13       30.10S
PEORIA         FAIR      66  36  32 N9        30.02S
$$

NOTE: "FAIR" INDICATES FEW OR NO CLOUDS BELOW 12,000 FEET WITH NO
SIGNIFICANT WEATHER AND/OR OBSTRUCTIONS TO VISIBILITY. WIND
SPEEDS ARE IN MILES-PER-HOUR.




USA.gov is the U.S. government's official web portal to all federal, state and local government web resources and services.